Погода в Соловьевске

Погода в Соловьевске : погода сейчас, прогноз погоды и архив. Всё, что Вы хотите узнать о погоде в Соловьевске!

Поиск расширенной информации на нашем сайте:

Другие новости

Новости СМИ2

Главная страница сайта

Новости сайта

03.07.2017

Напоминаем, что на нашем специализированном сайте Метеоцентр.Азия вы можете получить высокодетализированные автоматические прогнозы погоды по пунктам России, СНГ и мира в авиационном формате (включающие направление и скорость ветра, видимость, явления погоды, количество и форму облачности, нижнюю и верхнюю границу облачности).


Погода в Соловьевске - сегодня

Время (UTC), дата Ветер
(°,м/с) 
Видим.   Явления Облачность Т
(°С)
Тd
(°С)
f(%) Тe
(°С)
Pmin
(гПа)
dP
(гПа)
Po
(мм)
O2
(г/м3)
Тmin Tmax R s Состояние
почвы
03 17.11.17 330 (СЗ) 7-11{13}  20000 м    ясно 
-14 -22.3 49 -21  1034.3  1.4  715  305           
09 17.11.17 300 (СЗ) 20000 м    10/0 средняя, верхняя 
[Ac trans|Ci sp]
-14.8 -23.8 46 -17  1033.6  -0.2  715  306           
15 17.11.17 270 (З) 20000 м    1/0 верхняя 
[Ci sp]
-17.9 -23.7 60 -20  1033.2  -1  714  309           
18 17.11.17 270 (З) 20000 м    1/0 верхняя 
[Ci sp]
-18 -23.2 64 -21  1031.7  -1.3  713  309           
21 17.11.17 240 (ЮЗ) 20000 м    3/0 верхняя 
[Ci sp]
-17.1 -21.3 70 -21  1029.4  -1.9  711  307           
03 18.11.17 350 (С) 20000 м  {снег}  10/0 средняя, верхняя 
[Ac trans|Ci sp]
-13 -17.3 70 -18  1028.2  0.7  711  302           
09 18.11.17 020 (С) 2{11}  20000 м    3/0 средняя, верхняя 
[Ac trans|Ci sp]
-18.1 -23 65 -21  1031.5  1.3  713  309           
15 18.11.17 160 (Ю) 20000 м    6/0 средняя, верхняя 
[Ac trans|Ci sp]
-21.8 -25.3 73 -25  1032.9  -0.4  713  314           
18 18.11.17 170 (Ю) 20000 м    8/0 средняя, верхняя 
[Ac trans|Ci sp]
-18.1 -22.3 70 -22  1029.8  -1.8  711  308           
21 18.11.17 130 (ЮВ) 20000 м    8/0 средняя, верхняя 
[Ac trans|Ci sp]
-17.7 -21.1 75 -22  1027.2  -2.2  710  307           
03 19.11.17 тихо ()   20000 м    6/0 средняя, верхняя 
[Ac trans|Ci sp]
-11.3 -15.8 69 -11  1024  -0.4  709  299           
09 19.11.17 320 (СЗ) 20000 м  {снег}  8/0 средняя, верхняя 
[Ac trans|Ci sp]
-14 -16.9 79 -16  1026.1  1.5  710  303           
15 19.11.17 140 (ЮВ) 20000 м    8/0 средняя, верхняя 
[Ac trans|Ci sp]
-16.1 -18.4 82 -18  1028.7  0.4  711  306           
18 19.11.17 140 (ЮВ) 20000 м    10/0 средняя, верхняя 
[Ac trans|Ci sp]
-14.1 -16.3 83 -18  1027.6  -0.4  711  303           
21 19.11.17 140 (ЮВ) 20000 м  {снег}  8/0 средняя, верхняя 
[Ac trans|Ci sp]
-15.1 -17.1 85 -19  1026.4  -1.4  710  304           
03 20.11.17 220 (ЮЗ) 20000 м    9/0 верхняя 
[Ci sp]
-6 -11.5 65 -10  1020.1  -2.1  707  292           
09 20.11.17 210 (ЮЗ) 4{10}  20000 м    9/0 средняя, верхняя 
[Ac trans|Ci sp]
-5.5 -12.4 58 -9  1014.1  -2.3  703  290           
15 20.11.17 230 (ЮЗ) 20000 м    8/0 средняя, верхняя 
[Ac trans|Ci sp]
-10.4 -14.5 72 -12  1013.6  -0.7  702  295           
18 20.11.17 290 (З) 20000 м    10/0 средняя, верхняя 
[Ac trans|Ci sp]
-11.7 -14.8 78 -12  1013.1  -0.8  701  296           
21 20.11.17 280 (З) 20000 м    8/0 средняя, верхняя 
[Ac trans|Ci sp]
-11 -13.9 79 -14  1012.6  -0.3  701  295           
15 21.11.17 280 (З) 20000 м    4/0 средняя, верхняя 
[Ac trans|Ci sp]
-13.3 -18.2 67 -19  1019.8  -0.1  705  300           
18 21.11.17 280 (З) 20000 м    6/0 средняя, верхняя 
[Ac trans|Ci sp]
-14.4 -19.1 67 -18  1020.7  0.5  706  302           
21 21.11.17 290 (З) 20000 м    6/0 верхняя 
[Ci sp]
-16 -19.3 76 -21  1020.8  -0.4  706  303           
09 22.11.17 310 (СЗ) 3{10}  20000 м    5/0 средняя, верхняя 
[Ac trans|Ci sp]
-13.6 -18.8 65 -17  1019.7  705  300           
15 22.11.17 320 (СЗ) 20000 м    1/0 верхняя 
[Ci sp]
-19.8 -23.1 75 -23  1022.7  0.3  706  308           
Время (UTC), дата Ветер
(°,м/с) 
Видим.   Явления Облачность Т
(°С)
Тd
(°С)
f(%) Тe
(°С)
Pmin
(гПа)
dP
(гПа)
Po
(мм)
O2
(г/м3)
Тmin Tmax R s Состояние
почвы

Для получения пояснительной информации подведите курсор к названию столбца.

ПОГОДА в Соловьевске - архив

Всё, что Вы хотите узнать о погоде в Соловьевске - удобно и подробно!

Выберите нужную дату (начиная с 1 января 2015* года) и нажмите кнопку "Найти".
Будут отображены архивные сводки погоды по пункту Соловьевск, начиная с указанной даты.


Отображать данные в формате CSV (для использования в таблицах Excel)


Внимание! Наш архив погоды предназначен исключительно для личного некоммерческого использования в познавательных целях. Если Вам необходимы официальные справки о состоянии погоды (для производственных, юридических, коммерческих и т.п. целей), обращайтесь в органы Росгидромета.

*Примечание: данная дата относится к архиву по метеостанциям СССР (Россия, СНГ, Балтия).
Архив по метеостанциям Зарубежной Европы и Азии (кроме Китая) хранится 10 дней, по другим регионам земного шара (Китай, Африка, Америка, Австралия, Океания) - 1 день.

Соловьевск - район местоположения метеостанции


Название, широта, долгота, высота метеостанции:
Соловьевск 49.9°ш. 115.8°д. 623 м над ур. моря [Российская Федерация]

Дополнительная информация

В oтличие oт бoльшинства пoгoдных сайтoв мы публикуем пoдрoбную метеoинфoрмацию в детальнoм прoфессиoнальнoм фoрмате.

Характеристики температуры и влажнoсти вoздуха измеряются на высoте 2 м в тени вдали oт зданий и деревьев.
Скoрoсть ветра измеряется на высoте 10 м (на урoвне рoста челoвека скoрoсть ветра ниже в 1.5-2 раза). Если метеoстанция нахoдится в гoрoде или в лесу, тo скoрoсть ветра занижена на 2-4 м/с пo сравнению с oткрытым местoм. Скoрoсть ветра над акватoриями крупных рек и oзёр, а также на вершинах хoлмoв на 2-5 м/с выше, чем в oбычных услoвиях.
Атмoсфернoе давление в разных тoчках местнoсти мoжет значительнo oтличаться oт давления на метеoстанции, в зависимoсти oт услoвий рельефа (при пoдъёме на 10 м давление пoнижается примернo на 1 мм рт.ст.).